TimeCEST,TemperatureF,Dew PointF,Humidity,Sea Level PressureIn,VisibilityMPH,Wind Direction,Wind SpeedMPH,Gust SpeedMPH,PrecipitationIn,Events,Conditions,WindDirDegrees,DateUTC
1:55 AM,39.2,35.6,87,30.27,-9999.0,NNW,6.9,-,N/A,,Clear,330,2012-10-17 23:55:00
2:00 AM,39,35,82,,6,NNW,6.9,,,,Partly Cloudy,330,2012-10-18 00:00:00
4:55 AM,37.4,37.4,100,30.27,-9999.0,NNW,3.5,-,N/A,,Clear,330,2012-10-18 02:55:00
5:00 AM,38,37,95,,6,NNW,3.5,,,,,330,2012-10-18 03:00:00
5:55 AM,37.4,37.4,100,30.27,-9999.0,NNW,4.6,-,N/A,,Clear,340,2012-10-18 03:55:00
7:55 AM,37.4,33.8,87,30.27,-9999.0,NW,2.3,-,N/A,,Clear,320,2012-10-18 05:55:00
8:00 AM,38,34,80,,25,NW,2.3,,,,Clear,320,2012-10-18 06:00:00
8:55 AM,39.2,33.8,81,30.27,-9999.0,NNW,2.3,-,N/A,,Clear,330,2012-10-18 06:55:00
9:55 AM,39.2,33.8,81,30.27,-9999.0,ESE,11.5,-,N/A,,Clear,110,2012-10-18 07:55:00
10:55 AM,41.0,35.6,81,30.27,-9999.0,ESE,6.9,-,N/A,,Clear,120,2012-10-18 08:55:00
11:00 AM,41,36,76,,31,ESE,6.9,,,,Clear,120,2012-10-18 09:00:00
11:55 AM,42.8,35.6,76,30.27,-9999.0,ESE,17.3,-,N/A,,Clear,120,2012-10-18 09:55:00
12:55 PM,42.8,35.6,76,30.30,-9999.0,SE,15.0,-,N/A,,Clear,130,2012-10-18 10:55:00
1:55 PM,44.6,39.2,81,30.30,-9999.0,ESE,10.4,-,N/A,,Clear,120,2012-10-18 11:55:00
2:55 PM,46.4,39.2,76,30.30,-9999.0,SE,6.9,-,N/A,,Clear,140,2012-10-18 12:55:00
3:55 PM,48.2,39.2,71,30.30,-9999.0,SE,8.1,-,N/A,,Clear,130,2012-10-18 13:55:00
4:55 PM,48.2,42.8,82,30.30,-9999.0,SE,9.2,-,N/A,,Clear,130,2012-10-18 14:55:00
5:00 PM,48,43,75,,31,SE,9.2,,,,Clear,130,2012-10-18 15:00:00
5:55 PM,44.6,39.2,81,30.30,-9999.0,SE,5.8,-,N/A,,Clear,130,2012-10-18 15:55:00
6:55 PM,44.6,41.0,87,30.30,0.4,NNW,3.5,-,N/A,Fog,Fog,340,2012-10-18 16:55:00
7:55 PM,41.0,39.2,93,30.30,0.4,SE,4.6,-,N/A,Fog,Fog,140,2012-10-18 17:55:00
8:00 PM,41,40,93,,0,SE,4.6,,,Fog,Heavy Fog,140,2012-10-18 18:00:00
11:00 PM,45,12,14,,6,East,3.5,,,,Partly Cloudy,100,2012-10-18 21:00:00